CZ-6A DEB, 54512

Orbit data source: Space-Track

CZ-6A DEB, 54512 is space debris in SSO originally from a launch on Fri, 11 Nov 2022 UTC launched from the Taiyaun Space Center, China (TSC). Debris objects in space refer to the collection of defunct objects orbiting the Earth. Examples of debris include non-operational satellites, rocket bodies, and fragments generated from explosions, collisions, or faulty payload assembly.

Loading next visibility...
Identifier
54512, 2022-151JQ
Orbit
SSO
Country
Flag of CNCN / PRC
Related business
Manufacturer
SAST
Mission
Spacecraft
Bus & Motor
Unknown
Mass
Unknown
Launch date (UTC)
2022-11-11 (3 years ago)
Launch vehicle
Unknown
Launch site
Taiyaun Space Center, China (TSC)
Object type
Payload
Rocket body
Debris
Shape & HBR
Unknown shape, 0.1 m
Radar Cross Section
Small (<0.1 m²)

Expand to show TLE details & history
Last TLE update: 11 hours ago

TLE from 11 hours ago
0 CZ-6A DEB
1 54512U 22151JQ  25351.60587911  .00007748  00000-0  14180-2 0  9993
2 54512  98.6059  37.8959 0097476 134.0286 226.8998 14.63070965161636
Epoch: 2025-12-17T14:32Z
TLE epoch observation values (Epoch: 2025-12-17T14:32:27.955Z)
Latitude
-0.00001°
Longitude
93.30609°
Altitude
733.648 km
Speed
7.463 km/s
True Right ascension
02h 31m 35s
True Declination
0° 00' 00"
Sunlit
Object was in full shadow at epoch
Visualization orbit readout
Latitude
Unknown
Longitude
Unknown
Altitude
Unknown
Speed
Unknown
Apparent Right ascension
Unknown
Apparent Declination
Unknown
Sunlit
N/A
Visualization observer readout
Local Sidereal Time
00:25:39
Azimuth
Unknown
Elevation
Unknown
Doppler factor
Unknown
Orbital elements
Apogee altitude
749.175 km
Perigee altitude
611.568 km
Semi-major axis
7,058.508 km
Eccentricity
0.00975
Inclination
98.6059°
RAAN
37.8959°
Arg. of periapsis
134.0286°
True anomaly
226.09098°
Mean anomaly
226.8998°
Eccentric anomaly
226.49472°
Mean motion
3.65994 °/min
Orbital period
98.36 mins
BSTAR
0.001418
Loading maneuver chart data...
Computing Atmospheric mass density...
Loading historical data...
Loading historical data...
Loading historical data...
Loading historical data...
Loading historical data...
Loading historical data...
Loading historical data...

Documentation

Showing up to 5 results
|